Regional Weather Roundup
Issued by NWS Cleveland, OH

Home | Current Version | Previous Version | Graphics & Text | Print | Product List | Glossary On
Versions: 1 2 3 4 5 6 7 8 9 10 11 12 13 14 15 16 17 18 19 20 21 22 23 24 25 26 27 28 29 30 31 32 33 34 35 36 37 38 39 40 41 42 43 44 45 46 47 48 49 50
000
ASUS41 KCLE 301310
RWRCLE
OHIO REGIONAL WEATHER ROUNDUP
NATIONAL WEATHER SERVICE WILMINGTON, OH
900 AM EDT SAT AUG 30 2014

NOTE: "FAIR" INDICATES FEW OR NO CLOUDS BELOW 12,000 FEET WITH NO
SIGNIFICANT WEATHER AND/OR OBSTRUCTIONS TO VISIBILITY.

OHZ001>008-015>018-024>027-034-035-043-044-301400-
   NORTHWEST OHIO

CITY           SKY/WX    TMP DP  RH WIND       PRES   REMARKS
DEFIANCE       PTSUNNY   75  65  70 S12       29.97F
FINDLAY        SUNNY     75  65  70 S12       30.00F
TOLEDO EXPRESS MOSUNNY   75  65  70 S8        29.97F
TOLEDO METCALF MOSUNNY   75  64  68 S10       30.00S
LIMA           MOSUNNY   75  67  76 S9        30.02S
$$

OHZ009>014-019>023-028>033-038-089-301400-
   NORTHEAST OHIO

CITY           SKY/WX    TMP DP  RH WIND       PRES   REMARKS
CLE-HOPKINS    MOSUNNY   74  63  68 S10       30.06S
CLE-LAKEFRONT  SUNNY     74  60  61 SE13      30.02S
CUY CO. ARPT   MOSUNNY   77  66  69 S16       30.06R
LORAIN-ELYRIA  SUNNY     75  63  66 S8        30.05S
ASHTABULA      PTSUNNY   67  60  78 S9        30.08F
AKRON-CANTON   MOSUNNY   73  63  70 S8        30.09S
WOOSTER        SUNNY     70  63  78 S8        30.09S
MANSFIELD      SUNNY     74  66  76 S12       30.08S
YOUNGSTOWN     PTSUNNY   69  61  75 S9        30.10F
$$

OHZ042-051>053-060>062-070>072-077>081-301400-
  SOUTHWEST OHIO

CITY           SKY/WX    TMP DP  RH WIND       PRES   REMARKS
CINC-COVINGTON CLOUDY    75  65  70 S10       30.06S
CINC-LUNKEN    MOSUNNY   74  70  87 VRB3      30.06S
HAMILTON       MOSUNNY   76  70  82 CALM      30.06S
DAYTON         MOSUNNY   76  67  73 S12       30.06S
WRIGHT-PAT AFB SUNNY     75  69  82 S5        30.05S
DAYTON GENERAL SUNNY     75  67  76 S9        30.06R
WILMINGTON     SUNNY     75  68  78 S7        30.08R
$$

OHZ036-037-039>041-045>050-054>059-063>069-073>076-082>088-301400-
  CENTRAL AND SOUTHEAST OHIO

CITY           SKY/WX    TMP DP  RH WIND       PRES   REMARKS
COLUMBUS       MOSUNNY   77  66  68 S8        30.07S
OSU AIRPORT    SUNNY     76  66  71 S9        30.07S
BOLTON FIELD   SUNNY     72  68  88 S7        30.08F
RICKENBACK AFB SUNNY     75  65  70 S6        30.07S
NEWARK         SUNNY     72  66  81 CALM      30.08S
MARION         SUNNY     73  66  78 S12       30.06S
LANCASTER      SUNNY     76  69  79 S7        30.09R
ZANESVILLE     SUNNY     72  66  81 S7        30.10R
NEW PHILLY     SUNNY     70  66  87 SE5       30.10S
$$


USA.gov is the U.S. government's official web portal to all federal, state and local government web resources and services.